Regional Weather Roundup
Issued by NWS Little Rock, AR

Home | Current Version | Previous Version | Graphics & Text | Print | Product List | Glossary On
Versions: 1 2 3 4 5 6 7 8 9 10 11 12 13 14 15 16 17 18 19 20 21 22 23 24 25 26 27 28 29 30 31 32 33 34 35 36 37 38 39 40 41 42 43 44 45 46 47 48 49 50
000
ASUS44 KLZK 280005
RWRLZK

WEATHER ROUNDUP FOR ARKANSAS
NATIONAL WEATHER SERVICE LITTLE ROCK AR
600 PM CST TUE JAN 27 2015

NOTE: "FAIR" INDICATES FEW OR NO CLOUDS BELOW 12,000 FEET WITH NO
SIGNIFICANT WEATHER AND/OR OBSTRUCTIONS TO VISIBILITY.

ARZ001-003-010-029-280100-
NORTHWEST ARKANSAS

CITY           SKY/WX    TMP DP  RH WIND       PRES   REMARKS
FAYETTEVILLE   CLEAR     53  30  41 CALM      30.10F
6HR MIN TEMP:  52; 6HR MAX TEMP:  67;

FORT SMITH     CLEAR     62  27  26 CALM      30.09S
6HR MIN TEMP:  62; 6HR MAX TEMP:  72;

HARRISON       CLEAR     56  26  31 CALM      30.11S
6HR MIN TEMP:  55; 6HR MAX TEMP:  64;

BENTONVILLE    CLEAR     57  25  28 S3        30.12S
6HR MIN TEMP:  57; 6HR MAX TEMP:  66;

ROGERS         CLEAR     58  27  30 S3        30.11S
6HR MIN TEMP:  57; 6HR MAX TEMP:  65;

SILOAM SPGS    CLEAR     61  27  27 S3        30.11S
HIGHFILL       CLEAR     57  27  31 CALM      30.10S
6HR MIN TEMP:  57; 6HR MAX TEMP:  67;

SPRINGDALE     CLEAR     59  27  29 CALM      30.12F
$$

ARZ004-005-016-280100-
NORTH CENTRAL ARKANSAS

CITY           SKY/WX    TMP DP  RH WIND       PRES   REMARKS
BATESVILLE     CLEAR     52  32  46 E8        30.15R
6HR MIN TEMP:  52; 6HR MAX TEMP:  63;

FLIPPIN        CLEAR     55  28  35 CALM      30.12R
6HR MIN TEMP:  55; 6HR MAX TEMP:  63;

MTN HOME       CLEAR     52  32  46 CALM      30.12R
6HR MIN TEMP:  52; 6HR MAX TEMP:  59;

$$

ARZ040-041-280100-
WEST CENTRAL ARKANSAS

CITY           SKY/WX    TMP DP  RH WIND       PRES   REMARKS
MENA           CLEAR     59  36  41 CALM      30.11S
MOUNT IDA      CLEAR     62  36  37 CALM      30.09R
6HR MIN TEMP:  62; 6HR MAX TEMP:  75;

$$

ARZ009-017-025-026-028-280100-
NORTHEAST ARKANSAS

CITY           SKY/WX    TMP DP  RH WIND       PRES   REMARKS
CORNING        FAIR      46  37  71 E9        30.18R
JONESBORO      CLEAR     45  38  76 E3        30.17R
6HR MIN TEMP:  45; 6HR MAX TEMP:  54;

NEWPORT        CLEAR     47  41  80 E6        30.18R
6HR MIN TEMP:  47; 6HR MAX TEMP:  56;

WALNUT RIDGE   CLEAR     46  37  71 E6        30.16R
6HR MIN TEMP:  46; 6HR MAX TEMP:  54;

BLYTHEVILLE    CLEAR     42  35  76 NE8       30.19R
6HR MIN TEMP:  42; 6HR MAX TEMP:  54;

$$

ARZ022-023-033-042-044-280100-
CENTRAL ARKANSAS

CITY           SKY/WX    TMP DP  RH WIND       PRES   REMARKS
LITTLE ROCK    CLEAR     57  35  43 SE7       30.13R
6HR MIN TEMP:  57; 6HR MAX TEMP:  68;

N LITTLE ROCK  CLEAR     57  36  45 W3        30.13R
6HR MIN TEMP:  56; 6HR MAX TEMP:  65;

JACKSONVILLE   CLEAR     57  37  45 SE3       30.13R
6HR MIN TEMP:  57; 6HR MAX TEMP:  67;

SEARCY         CLEAR     52  37  56 E7        30.16R
6HR MIN TEMP:  52; 6HR MAX TEMP:  64;

HOT SPRINGS    CLEAR     62  31  31 CALM      30.11R
6HR MIN TEMP:  62; 6HR MAX TEMP:  72;

RUSSELLVILLE   CLEAR     54  37  52 CALM      30.10S
6HR MIN TEMP:  54; 6HR MAX TEMP:  71;

CLINTON        FAIR      50  32  50 CALM      30.14R
$$

ARZ036-280100-
EAST ARKANSAS

CITY           SKY/WX    TMP DP  RH WIND       PRES   REMARKS
WEST MEMPHIS   CLEAR     46  37  71 NE5       30.16R
6HR MIN TEMP:  46; 6HR MAX TEMP:  55;

$$

ARZ050-053-066-070-073-280100-
SOUTHWEST ARKANSAS

CITY           SKY/WX    TMP DP  RH WIND       PRES   REMARKS
ARKADELPHIA    FAIR      58  44  59 CALM      30.12R
6HR MIN TEMP:  59; 6HR MAX TEMP:  72;

CAMDEN         CLEAR     59  36  41 CALM      30.12S
TEXARKANA      CLEAR     65  36  34 SE5       30.11S
6HR MIN TEMP:  64; 6HR MAX TEMP:  75;

EL DORADO      CLEAR     57  40  52 CALM      30.13R
6HR MIN TEMP:  54; 6HR MAX TEMP:  71;

DE QUEEN       CLEAR     65  36  34 S3        30.09R
6HR MIN TEMP:  65; 6HR MAX TEMP:  75;

$$

ARZ056-057-069-280100-
SOUTHEAST ARKANSAS

CITY           SKY/WX    TMP DP  RH WIND       PRES   REMARKS
PINE BLUFF     CLEAR     55  38  52 E3        30.14R
6HR MIN TEMP:  52; 6HR MAX TEMP:  62;

STUTTGART      CLEAR     55  36  47 SE6       30.15S
6HR MIN TEMP:  55; 6HR MAX TEMP:  61;

MONTICELLO     CLEAR     57  39  51 CALM      30.14R
6HR MIN TEMP:  56; 6HR MAX TEMP:  67; 6HR PCP: TRACE;


$$





USA.gov is the U.S. government's official web portal to all federal, state and local government web resources and services.